星链-1222 (STARLINK-1222 )

导读

STARLINK-1222是美国太空探索技术公司星链星座的卫星,于2020年2月17日发射。星链旨在构建全球卫星互联网,提供覆盖偏远地区的网络服务,该卫星是星链早期组网卫星之一,承担低轨通信测试与组网任务,助力星链系统逐步完成全球通信覆盖布局。

基本信息
目录编号:
45228
目录名称:
STARLINK-1222
国际标识:
2020-012BC
轨道中心:
EARTH
卫星名称:
星链-1222
卫星全名:
星链-1222 (STARLINK-1222 )
卫星状态:
在轨 (已飞行2401 天)
发射日期:
2020-02-17 UTC
国别 :
美国 (US)
星等 :
--
该卫星已列入 空间交会检测服务 Space Conjunction Data Service (SCDS) ,当前飞行风险评估等级: 无高风险
轨道信息
数据来源 国际轨道数据
星历时间: 2026-09-13T08:49:12+0800
1天前
查看轨道信息
半长轴: 6754.644km
偏心率: 0.0004005
轨道倾角: 53.050°
近地点辐角 107.438°
升交点赤经 155.625°
平近点角 252.708°
近地点: 373.801km
远地点: 379.213km
周期: 92.080分钟
每日圈数: 15.638645
详细信息
固有亮度:
5
最大亮度:
2.5
卫星平台:
Starlink V1.0
覆盖范围:
全球
运营商:
太空探索技术公司
运营商所在国:
美国
制造商(研发单位):
太空探索技术公司
制造商所在国:
美国
使用方式:
暂无
卫星简介
星链(Starlink)计划是由太空探索技术公司(SpaceX)提出的一个巨型低轨卫星互联网星座项目,计划在2019年至2024年间在太空搭建由约1.2万颗卫星组成的“星链”网络,其中1584颗将部署在地球上空550千米处的近地轨道,并从2020年开始工作。该卫星仍在工作。
2D轨道图
3D轨道图
轨道高度分析图
轨道倾角分析图
轨道综合分析图
查看轨道综合分析图
交会数据列表
事件ID 空间交会对象 最接近时刻(TCA) 交会距离 交会风险概率(CRP) 交会风险指数(CRI) 操作
CDM_260915-215104-438904-522821
ICEYE-X5 (44389)
2026-09-15T
21:51:00+0000
2.357 km
极远距离
1.969423E-6 低风险 0.41
与全量物体交会距离演化趋势 订阅飞行安全评估服务
与全量物体交会风险概率演化趋势 订阅飞行安全评估服务